Location: Ottawa
(45.4167°N, 75.7000°W)
Time: 06:43:41
(UTC-04:00)

Vanguard 1 Rocket - All Passes

Search period start: 16 July 2018 00:00
Search period end: 26 July 2018 00:00
Orbit: 652 x 4225 km, 34.3° (Epoch: 15 July)

Date Brightness Start Highest point End Pass type
(mag) Time Alt. Az. Time Alt. Az. Time Alt. Az.
16 Jul - 06:45:55 10° S 06:56:16 15° SE 07:04:36 10° ESE daylight
16 Jul - 09:07:37 10° SSW 09:24:21 34° SSE 09:34:23 10° E daylight
16 Jul - 11:37:12 10° WSW 11:51:20 44° S 11:58:55 10° ESE daylight
16 Jul - 14:07:54 10° W 14:16:24 31° SSW 14:21:38 10° SE daylight
17 Jul - 07:54:57 10° SSW 08:11:42 28° SSE 08:22:49 10° E daylight
17 Jul - 10:22:48 10° SW 10:39:29 43° S 10:48:34 10° ESE daylight
17 Jul - 12:53:52 10° WSW 13:05:34 41° SSW 13:12:02 10° SE daylight
17 Jul - 15:24:56 10° WSW 15:29:28 16° SW 15:32:57 10° S daylight
18 Jul - 06:43:55 10° S 06:58:49 21° SE 07:09:59 10° ESE daylight
18 Jul - 09:08:40 10° SW 09:27:09 40° SSE 09:37:50 10° E daylight
18 Jul - 11:39:22 10° WSW 11:54:14 47° S 12:02:05 10° ESE daylight
18 Jul - 14:10:41 10° W 14:19:09 28° SSW 14:24:27 10° SSE daylight
19 Jul - 05:36:16 10° SSE 05:45:53 14° SE 05:54:11 10° ESE daylight
19 Jul - 07:55:18 10° SSW 08:14:21 34° SSE 08:26:31 10° E daylight
19 Jul - 10:24:36 10° WSW 10:42:20 48° S 10:51:48 10° ESE daylight
19 Jul - 12:56:22 10° W 13:08:24 40° SSW 13:15:04 10° SE daylight
19 Jul - 15:28:41 10° WSW 15:32:00 13° SW 15:34:45 10° SSW daylight
20 Jul - 06:43:16 10° SSW 07:01:18 27° SSE 07:14:16 10° E daylight
20 Jul - 09:10:01 10° SW 09:29:53 45° SSE 09:41:08 10° E daylight
20 Jul - 11:41:36 10° WSW 11:57:04 48° S 12:05:11 10° ESE daylight
20 Jul - 14:13:33 10° W 14:21:47 25° SW 14:27:05 10° SSE daylight
21 Jul - 05:33:23 10° S 05:48:11 19° SE 06:00:17 10° ESE daylight
21 Jul - 07:56:07 10° SW 08:16:57 40° SSE 08:29:58 10° E daylight
21 Jul - 10:26:33 10° WSW 10:45:07 51° S 10:54:58 10° ESE daylight
21 Jul - 12:58:53 10° W 13:11:07 38° SSW 13:17:58 10° SE daylight
22 Jul - 04:29:02 10° SE 04:35:15 11° SE 04:41:06 10° ESE visible
22 Jul - 06:43:23 10° SSW 07:03:43 33° SSE 07:18:02 10° E daylight
22 Jul - 09:11:37 10° SW 09:32:34 50° S 09:44:20 10° E daylight
22 Jul - 11:43:53 10° W 11:59:50 48° SSW 12:08:14 10° ESE daylight
22 Jul - 14:16:34 10° W 14:24:18 21° SW 14:29:30 10° S daylight
23 Jul - 05:32:20 10° S 05:50:25 25° SE 06:04:50 10° E daylight
23 Jul - 07:57:17 10° SW 08:19:30 46° SSE 08:33:14 10° E daylight
23 Jul - 10:28:37 10° WSW 10:47:52 53° S 10:58:04 10° ESE daylight
23 Jul - 13:01:29 10° W 13:13:44 34° SSW 13:20:45 10° SSE daylight
24 Jul - 04:24:08 10° SSE 04:37:19 17° SE 04:49:09 10° ESE visible
24 Jul - 06:44:02 10° SSW 07:06:04 39° SSE 07:21:28 10° E daylight
24 Jul - 09:13:24 10° WSW 09:35:15 54° S 09:47:28 10° ESE daylight
24 Jul - 11:46:15 10° W 12:02:31 46° SSW 12:11:11 10° SE daylight
24 Jul - 14:19:49 10° W 14:26:41 18° SW 14:31:33 10° S daylight
25 Jul - 05:32:14 10° SSW 05:52:34 31° SE 06:08:43 10° E daylight
25 Jul - 07:58:46 10° SW 08:22:01 51° SSE 08:36:23 10° E daylight
25 Jul - 10:30:46 10° WSW 10:50:33 54° S 11:01:06 10° ESE daylight
25 Jul - 13:04:08 10° W 13:16:13 31° SW 13:23:22 10° SSE daylight
